This demonstration page uses our WeatherBlox Daily Observations layout. Learn more.

Left ArrowRight Arrow

Hourly Observations for March 14, 2020

Temp ( °F °C ) Dew Point ( °F °C ) Humidity (%) Winds ( mph kmh ) Pressure ( in mb ) Visibility ( mi km ) Precip ( " mm )
12:41 am 00:41 Cloudy with Light Snow 33 0.6 31 -0.6 92 92 NE 7 11 30.42 1030 1.25 2.011675 0.05 1.27
12:54 am 00:54 Cloudy with Light Snow 33 0.6 31 -0.6 92 92 ENE 7 11 30.39 1029 1.75 2.816345 0.06 1.524
1:09 am 01:09 Cloudy with Light Snow 33 0.6 31 -0.6 92 92 NE 8 13 30.42 1030 1.75 2.816345 0.01 0.254
1:16 am 01:16 Cloudy with Light Snow 33 0.6 31 -0.6 92 92 NE 7 11 30.42 1030 2 3.21868 0.01 0.254
1:26 am 01:26 Cloudy with Light Snow 33 0.6 31 -0.6 92 92 NE 7 11 30.42 1030 1.5 2.41401 0.02 0.508
1:54 am 01:54 Cloudy with Light Snow 33 0.6 31 -0.6 92 92 ENE 6 9 30.4 1029 1.75 2.816345 0.06 1.524
2:08 am 02:08 Cloudy with Light Snow 33 0.6 31 -0.6 92 92 ENE 7 11 30.44 1031 1.75 2.816345 0.01 0.254
2:54 am 02:54 Cloudy with Light Snow 33 0.6 31 -0.6 92 92 NE 8 13 30.4 1029 1 1.60934 0.06 1.524
3:42 am 03:42 Cloudy with Light Snow 33 0.6 31 -0.6 92 92 ENE 10 17 30.44 1031 2 3.21868 0.05 1.27
3:50 am 03:50 Cloudy with Light Snow 34 1 30 -1 87 87 ENE 9 15 30.44 1031 3 4.82802 0.05 1.27
3:51 am 03:51 Cloudy with Light Snow 33 0.6 31 -0.6 92 92 ENE 9 15 30.4 1030 3 4.82802 0.05 1.27
4:05 am 04:05 Cloudy with Light Snow 33 0.6 31 -0.6 92 92 ENE 10 17 30.42 1030 3 4.82802 0.001 0.001
4:13 am 04:13 Cloudy with Light Snow 33 0.6 31 -0.6 92 92 ENE 9 15 30.43 1030 2 3.21868 0.01 0.254
4:26 am 04:26 Cloudy with Light Snow 33 0.6 31 -0.6 92 92 ENE 13 20 30.41 1030 1.75 2.816345 0.01 0.254
4:36 am 04:36 Cloudy with Light Snow 33 0.6 31 -0.6 92 92 ENE 10 17 30.41 1030 2.5 4.02335 0.02 0.508
4:54 am 04:54 Cloudy with Light Snow 33 0.6 31 -0.6 92 92 ENE 10 17 30.37 1029 2 3.21868 0.02 0.508
5:17 am 05:17 Cloudy with Light Snow 33 0.6 31 -0.6 92 92 ENE 12 19 30.4 1029 1.75 2.816345 0.01 0.254
5:28 am 05:28 Cloudy with Light Snow 33 0.6 31 -0.6 92 92 ENE 15 24 30.41 1030 2 3.21868 0.01 0.254
5:38 am 05:38 Cloudy with Light Snow 33 0.6 31 -0.6 92 92 ENE 13 20 30.41 1030 1.75 2.816345 0.02 0.508
5:54 am 05:54 Cloudy with Light Snow 33 0.6 31 -0.6 92 92 ENE 12 19 30.38 1029 1.5 2.41401 0.02 0.508
6:20 am 06:20 Cloudy with Light Snow 33 0.6 31 -0.6 92 92 ENE 13 20 30.42 1030 2.5 4.02335 0.01 0.254
6:30 am 06:30 Cloudy with Light Snow 33 0.6 31 -0.6 92 92 ENE 10 17 30.43 1030 3 4.82802 0.01 0.254
6:54 am 06:54 Cloudy with Light Snow 33 0.6 31 -0.6 92 92 ENE 13 20 30.4 1030 2.5 4.02335 0.02 0.508
7:21 am 07:21 Cloudy with Light Snow 33 0.6 31 -0.6 92 92 ENE 13 20 30.45 1031 1.75 2.816345 0.01 0.254
7:32 am 07:32 Cloudy with Light Snow 33 0.6 31 -0.6 92 92 ENE 12 19 30.44 1031 2 3.21868 0.01 0.254
7:54 am 07:54 Cloudy with Light Snow 33 0.6 31 -0.6 92 92 ENE 12 19 30.42 1030 2.5 4.02335 0.01 0.254
8:18 am 08:18 Cloudy with Light Snow 33 0.6 31 -0.6 92 92 ENE 12 19 30.45 1031 3 4.82802 0.001 0.001
8:54 am 08:54 Cloudy with Light Snow 33 0.6 31 -0.6 92 92 ENE 13 20 30.44 1031 5 8.0467 0.01 0.254
9:54 am 09:54 Cloudy with Light Wintry Mix 34 1.1 31 -0.6 89 89 ENE 15 24 30.45 1031 10 16.0934 0.001 0.001
10:54 am 10:54 Cloudy with Light Rain 33 0.6 30 -1.1 89 89 ENE 18 30 30.45 1031 8 12.87472 0.001 0.001
11:29 am 11:29 Cloudy 33 0.6 29 -1.7 85 85 E 18 30 30.49 1032 10 16.0934 0.001 0.001
11:39 am 11:39 Cloudy 33 0.6 29 -1.7 85 85 ENE 13 20 30.5 1033 9 14.48406 0.001 0.001
11:54 am 11:54 Cloudy 33 0.6 29 -1.7 85 85 ENE 16 26 30.48 1032 9 14.48406 0.001 0.001
12:08 pm 12:08 Cloudy 33 0.6 29 -1.7 85 85 ENE 15 24 30.51 1033 10 16.0934 0 0
12:54 pm 12:54 Cloudy 33 0.6 29 -1.7 85 85 ENE 18 30 30.5 1033 10 16.0934 0 0
1:54 pm 13:54 Cloudy 34 1.1 29 -1.7 82 82 ENE 17 28 30.48 1032 7 11.26538 0 0
2:54 pm 14:54 Cloudy 35 1.7 30 -1.1 82 82 ENE 15 24 30.47 1032 10 16.0934 0 0
3:54 pm 15:54 Cloudy 35 1.7 29 -1.7 78 78 E 13 20 30.47 1032 10 16.0934 0 0
4:54 pm 16:54 Cloudy 34 1.1 29 -1.7 82 82 ENE 17 28 30.49 1033 10 16.0934 0 0
5:54 pm 17:54 Cloudy 34 1.1 29 -1.7 82 82 ENE 15 24 30.5 1033 10 16.0934 0 0
6:54 pm 18:54 Cloudy 34 1.1 29 -1.7 82 82 NE 12 19 30.53 1034 10 16.0934 0 0
7:54 pm 19:54 Cloudy 34 1.1 29 -1.7 82 82 ENE 10 17 30.55 1035 10 16.0934 0 0
8:02 pm 20:02 Cloudy 34 1.1 28 -2.2 79 79 ENE 8 13 30.57 1035 10 16.0934 0 0
8:54 pm 20:54 Cloudy 34 1.1 28 -2.2 79 79 NE 8 13 30.57 1035 10 16.0934 0 0
9:10 pm 21:10 Cloudy 34 1.1 28 -2.2 79 79 NE 7 11 30.58 1036 10 16.0934 0 0
9:35 pm 21:35 Cloudy 34 1.1 29 -1.7 82 82 ENE 10 17 30.6 1036 10 16.0934 0 0
9:54 pm 21:54 Cloudy 34 1.1 29 -1.7 82 82 ENE 9 15 30.58 1035 10 16.0934 0 0
10:54 pm 22:54 Cloudy 34 1.1 29 -1.7 82 82 ENE 8 13 30.59 1036 10 16.0934 0 0
11:54 pm 23:54 Cloudy 34 1.1 29 -1.7 82 82 ENE 7 11 30.61 1037 10 16.0934 0 0

Powered by AerisWeather